Location: Newark
(13.8625°N, 100.5144°E)
Time: 18:59:29
(UTC+00:00)

LightSail 2 - Pass Details

Date: 16 May 2021
Orbit: 685 x 700 km, 24.0° (Epoch: 11 June)

Event Time Altitude Azimuth Distance (km) Brightness Sun altitude
Exits shadow 19:51:44 15° 70° (ENE) 1,804 7.8 -39.0°
Drops below altitude 10° 19:52:45 10° 77° (ENE) 2,134 8.2 -38.8°
Sets 19:55:21 0° 86° (E) 3,047 9.1 -38.3°
